Weather History for Kahului, HI

Change the Weather History Date:

Tuesday, April 22, 2014

  Actual Average Record
Temperature  
Mean Temperature 78 °F 74 °F  
Max Temperature 83 °F 83 °F 90 °F (1953)
Min Temperature 72 °F 66 °F 56 °F (1958)
Degree Days  
Heating Degree Days 0 0  
Month to date heating degree days 0 0  
Since 1 July heating degree days 0 0  
Cooling Degree Days 13 9  
Month to date cooling degree days 228 198  
Year to date cooling degree days 1032 852  
Growing Degree Days 27 (Base 50)    
Moisture  
Dew Point 65 °F    
Average Humidity 64    
Maximum Humidity 73    
Minimum Humidity 55    
Precipitation  
Precipitation 0.00 in 0.05 in 0.50 in (1969)
Month to date precipitation 2.05 1.28  
Year to date precipitation 12.45 8.49  
Snow  
Snow 0.00 in - - ()
Month to date snowfall 0.0  
Since 1 July snowfall 0.0  
Snow Depth 0.00 in    
Sea Level Pressure  
Sea Level Pressure 30.08 in    
Wind  
Wind Speed 22 mph (NE)    
Max Wind Speed 32 mph    
Max Gust Speed 41 mph    
Visibility 10 miles    
Events      
T = Trace of Precipitation, MM = Missing Value Source: NWS Daily Summary

Daily Weather History Graph

Daily Weather History Graph

Search for Another Location

Airport:

Trip Planner

Search our weather history database for the weather conditions in past years. The results will help you decide how hot, cold, wet, or windy it might be!

Date:

Astronomy

Apr. 22, 2014 Rise Set
Actual Time 6:01 AM HST 6:47 PM HST
Civil Twilight 5:38 AM HST 7:10 PM HST
Nautical Twilight 5:11 AM HST 7:36 PM HST
Astronomical Twilight 4:44 AM HST 8:04 PM HST
Moon 1:06 AM HST (4/22) 12:50 PM HST (4/22)
Length of Visible Light 13h 31m
Length of Day
12h 45m
Last Quarter, 43% of the Moon is Illuminated
Apr 22
Last Quarter
Apr 28
New
May 6
First Quarter
May 14
Full
May 21
Last Quarter

Hourly Weather History & Observations

Time (HST) Temp. Heat Index Dew Point Humidity Pressure Visibility Wind Dir Wind Speed Gust Speed Precip Events Conditions
12:54 AM 73.0 °F - 64.9 °F 76% 30.10 in 10.0 mi NE 17.3 mph 26.5 mph N/A   Clear
1:54 AM 73.0 °F - 64.9 °F 76% 30.10 in 10.0 mi NE 17.3 mph 23.0 mph N/A   Clear
2:54 AM 73.0 °F - 64.0 °F 73% 30.09 in 10.0 mi ENE 19.6 mph 26.5 mph N/A   Clear
3:54 AM 73.0 °F - 61.0 °F 66% 30.09 in 10.0 mi NE 18.4 mph 27.6 mph N/A   Clear
4:54 AM 73.0 °F - 64.0 °F 73% 30.09 in 10.0 mi NE 15.0 mph 21.9 mph N/A   Clear
5:54 AM 73.0 °F - 64.0 °F 73% 30.09 in 10.0 mi NE 19.6 mph 25.3 mph N/A   Partly Cloudy
6:54 AM 73.9 °F - 64.0 °F 71% 30.10 in 10.0 mi NNE 23.0 mph 29.9 mph N/A   Partly Cloudy
7:54 AM 77.0 °F - 64.0 °F 64% 30.11 in 10.0 mi NE 23.0 mph 31.1 mph N/A   Partly Cloudy
8:54 AM 78.1 °F - 66.9 °F 68% 30.12 in 10.0 mi NE 23.0 mph 31.1 mph N/A   Partly Cloudy
9:54 AM 80.1 °F 82.1 °F 66.0 °F 62% 30.13 in 10.0 mi NE 27.6 mph 39.1 mph N/A   Partly Cloudy
10:54 AM 81.0 °F 83.3 °F 66.9 °F 62% 30.12 in 10.0 mi NE 28.8 mph 35.7 mph N/A   Scattered Clouds
11:54 AM 82.0 °F 84.5 °F 66.9 °F 60% 30.09 in 10.0 mi NE 25.3 mph 40.3 mph N/A   Scattered Clouds
12:54 PM 82.0 °F 83.8 °F 64.9 °F 56% 30.07 in 10.0 mi ENE 21.9 mph 38.0 mph N/A   Scattered Clouds
1:54 PM 82.9 °F 84.4 °F 64.0 °F 53% 30.04 in 10.0 mi ENE 25.3 mph 38.0 mph N/A   Scattered Clouds
2:54 PM 81.0 °F 82.5 °F 64.0 °F 56% 30.02 in 10.0 mi ENE 25.3 mph 38.0 mph N/A   Scattered Clouds
3:54 PM 81.0 °F 83.0 °F 66.0 °F 60% 30.02 in 10.0 mi NE 31.1 mph 35.7 mph N/A   Scattered Clouds
4:54 PM 79.0 °F - 64.0 °F 60% 30.01 in 10.0 mi NE 21.9 mph 38.0 mph N/A   Scattered Clouds
5:54 PM 75.9 °F - 64.0 °F 67% 30.03 in 10.0 mi NE 23.0 mph 32.2 mph N/A   Scattered Clouds
6:54 PM 75.0 °F - 64.9 °F 71% 30.05 in 10.0 mi NE 19.6 mph 31.1 mph N/A   Partly Cloudy
7:54 PM 73.9 °F - 64.9 °F 73% 30.08 in 10.0 mi NE 17.3 mph 25.3 mph N/A   Scattered Clouds
8:54 PM 73.0 °F - 64.9 °F 76% 30.11 in 10.0 mi NE 16.1 mph - N/A   Clear
9:54 PM 73.9 °F - 64.0 °F 71% 30.11 in 10.0 mi NE 18.4 mph 25.3 mph N/A   Clear
10:54 PM 73.9 °F - 64.9 °F 73% 30.11 in 10.0 mi NE 16.1 mph - N/A   Clear
11:54 PM 73.9 °F - 64.9 °F 73% 30.09 in 10.0 mi NE 17.3 mph 28.8 mph N/A   Clear